Location: D?nule?ti
(46.0500°N, 22.5833°E)
Time: 07:18:42
(UTC+00:00)

Daily predictions for brighter satellites

Satellite Brightness Start Highest point End
(mag) Time Altitude Azimuth Time Altitude Azimuth Time Altitude Azimuth
Cosmos 2150 Rocket 4.2 15:12:48 10° NNW 15:17:51 50° ENE 15:22:49 10° SE
Cosmos 1818 3.8 15:13:20 10° NNW 15:18:40 50° NE 15:23:57 10° ESE
Radarsat Rocket 4.1 15:15:52 10° SSE 15:21:45 68° ENE 15:28:18 10° NNW
CZ-4B DEB 4.2 15:17:06 10° SSE 15:22:36 84° ENE 15:28:06 10° NNW
PSLV R/B 4.0 15:19:06 10° SSE 15:23:13 89° ESE 15:27:21 10° NNW
Cosmos 1408 Rocket 3.8 15:19:43 10° NNW 15:24:08 74° W 15:28:27 10° S
Cosmos 2333 Rocket 2.6 15:20:18 10° SW 15:25:59 69° WNW 15:31:40 10° NNE
Nadezhda 1 Rocket 4.2 15:20:47 10° SSE 15:26:52 53° E 15:33:04 10° NNE
Sich 1 4.0 15:23:53 10° NNE 15:27:34 25° ENE 15:31:12 10° SE
Cosmos 1606 4.1 15:26:11 10° SE 15:29:05 20° E 15:31:59 10° NE
Cosmos 1842 Rocket 3.6 15:26:39 10° S 15:30:59 88° WNW 15:35:20 10° N
Okean O Rocket 1.8 15:27:02 10° SE 15:31:12 47° ENE 15:35:24 10° N
COSMOS 2428 2.9 15:25:43 10° SSW 15:31:27 79° WNW 15:37:14 10° NNE
Cosmos 1125 Rocket 3.7 15:27:48 10° NNW 15:32:51 48° ENE 15:37:52 10° SE
Cosmos 2208 Rocket 4.2 15:30:08 10° SSW 15:35:23 80° WNW 15:40:47 10° NNE
ISS -3.3 15:34:23 10° SW 15:37:40 51° SE 15:40:35 12° ENE
Cosmos 2278 Rocket 2.2 15:32:42 10° NNW 15:38:24 76° ENE 15:44:05 10° SSE
Cosmos 1805 Rocket 3.9 15:34:12 10° N 15:38:28 42° ENE 15:42:41 10° SSE
Cosmos 2154 Rocket 4.0 15:33:49 10° N 15:40:09 69° E 15:46:28 10° SSE
USA 267 3.6 15:35:40 10° E 15:41:51 48° NNE 15:48:04 10° NW
Cosmos 1610 Rocket 4.5 15:37:50 10° N 15:44:12 74° E 15:50:27 10° SSE
CRYOSAT 2 4.4 15:41:38 10° NNE 15:46:28 57° E 15:51:16 10° S
Cosmos 540 Rocket 4.5 15:41:41 10° SW 15:46:36 46° WNW 15:51:33 10° N
CZ-4B R/B 2.2 15:44:07 10° NE 15:46:43 26° E 15:49:22 10° SSE
Cosmos 2341 Rocket 4.3 15:42:55 10° N 15:48:54 44° ENE 15:54:54 10° SSE
NOSS 0 Rocket 4.0 15:43:08 10° SSW 15:49:20 76° ESE 15:55:35 10° NNE
Cosmos 2360 Rocket 4.1 15:45:03 10° W 15:49:30 23° NW 15:53:58 10° N
Cosmos 1862 3.3 15:46:01 10° N 15:50:05 87° W 15:54:06 10° S
Lacrosse 5 rocket 3.3 15:51:32 10° SE 15:51:44 10° ESE 15:51:56 10° ESE
SL-24 R/B - RUBIN 2 4.3 15:47:03 10° NW 15:53:27 82° NE 15:59:06 10° SE
Cosmos 2292 4.2 15:50:39 10° S 15:53:40 71° E 15:57:15 10° NNE
NOAA 12 4.1 15:48:44 10° SSE 15:54:05 85° ENE 15:59:26 10° NNW
Cosmos 2219 Rocket 3.2 15:51:55 10° SW 15:57:20 45° WNW 16:02:46 10° NNE
ERS-2 2.7 15:55:15 10° NNE 15:58:41 36° E 16:02:05 10° SSE
Landsat 5 4.3 15:56:01 10° N 16:00:18 55° WNW 16:04:39 10° SSW
CZ-2D R/B 4.2 15:57:13 10° ESE 16:00:20 25° ENE 16:03:30 10° NNE
CZ-4B R/B 3.3 15:56:25 10° SSE 16:01:47 78° WSW 16:07:07 10° NNW
Envisat 4.0 15:57:01 10° S 16:01:56 50° W 16:06:53 10° NNW
CZ-4 R/B 2.6 16:02:21 19° ENE 16:03:00 20° ENE 16:05:55 10° NNE
SMAP 3.3 15:59:16 10° S 16:03:55 75° WSW 16:08:35 10° NNW
H-2A R/B 2.4 16:00:28 10° N 16:04:36 63° WNW 16:08:45 10° SSW
TELKOM 3 3.5 16:03:50 10° SW 16:06:31 48° SSE 16:07:19 32° E
Cosmos 2237 Rocket 2.1 16:00:57 10° SSW 16:06:34 80° ESE 16:12:13 10° NNE
SKYMED 2 4.2 16:03:31 11° NNE 16:07:23 34° E 16:11:20 10° SSE
NOAA 11 4.1 16:03:14 10° SSE 16:08:39 76° ENE 16:14:05 10° N
FengYun 1-2 T 4.2 16:04:47 10° SSE 16:10:21 83° ENE 16:15:54 10° NNW
SL-8 Rocket 4.1 16:07:20 10° N 16:13:23 51° ENE 16:19:28 10° SSE
GENESIS II 4.1 16:09:32 10° NW 16:13:30 89° WSW 16:17:23 10° SE
H-2A R/B 3.1 16:11:48 18° E 16:14:02 23° ENE 16:18:05 10° NNE
Cosmos 1939 Rocket 2.9 16:11:36 10° SSE 16:15:19 50° ENE 16:19:07 10° N
CREW DRAGON DEMO-1 DEB 3.3 16:12:28 10° NW 16:15:20 42° NNE 16:16:01 35° NE
Cosmos 1633 Rocket 3.4 16:11:18 10° N 16:15:27 40° ENE 16:19:34 10° SE
USA 281 3.4 16:09:46 10° SE 16:16:00 48° NE 16:22:16 10° NNW
Cosmos 2369 Rocket 3.4 16:15:20 10° N 16:19:41 22° NE 16:20:20 21° NE
Cosmos 2181 Rocket 4.2 16:13:38 10° SSE 16:19:49 52° E 16:25:58 10° NNE
Meteor 2-12 Rocket 4.4 16:16:59 10° N 16:23:11 86° E 16:29:19 10° S
Cosmos 1980 3.9 16:19:05 10° SSW 16:24:46 72° WNW 16:30:28 10° NNE
MOS 1 Rocket 4.4 16:24:29 23° NE 16:26:39 30° E 16:31:23 10° SSE
Abrixas rocket 4.2 16:33:34 10° W 16:35:43 21° SW 16:37:21 13° S
YAOGAN 1 2.7 16:44:13 46° E 16:44:37 47° ENE 16:48:47 10° N
Cosmos 2297 3.6 16:39:51 10° NNW 16:45:33 71° ENE 16:51:14 10° SSE
Cosmos 389 Rocket 3.3 16:43:36 10° SSW 16:46:56 48° WNW 16:49:22 17° N
Meteor 1-14 Rocket 4.5 16:42:51 10° N 16:48:35 48° ENE 16:54:21 10° SSE
Cosmos 1943 Rocket 2.4 16:43:34 10° NNW 16:48:55 46° ENE 16:50:05 40° E
Cosmos 1470 Rocket 3.8 16:46:34 10° N 16:50:03 46° NE 16:50:03 46° NE
Cosmos 1933 3.3 16:47:21 10° S 16:51:23 82° W 16:53:49 24° N
USA 215 3.3 16:47:51 27° NE 16:51:42 82° NW 16:58:14 10° WSW
Cosmos 1689 Rocket 3.9 16:53:23 23° S 16:53:23 23° S 16:54:39 10° S
Cosmos 44 3.4 16:47:02 10° NNW 16:52:17 64° NE 16:54:10 39° ESE
BREEZE-M DEB (TANK) 3.6 16:51:51 10° W 16:53:03 28° WNW 16:53:03 28° WNW
SL-16 R/B 2.1 16:48:46 10° SSW 16:54:23 71° ESE 16:56:52 34° NE
CZ-2C R/B 2.8 16:49:40 10° SSE 16:54:49 70° ENE 16:59:43 10° N
Cosmos 1867 3.5 16:49:33 10° SSW 16:55:00 87° SE 16:57:17 37° NE
CZ-4 R/B 4.4 16:51:09 10° S 16:55:18 81° WSW 16:59:28 10° NNW
COSMO-SKYMED 1 2.6 16:52:07 16° N 16:55:33 76° WNW 16:59:52 10° SSW
ARGOS 4.0 16:57:00 32° NE 16:57:00 32° NE 17:00:34 10° N
Okean-O 2.5 16:51:40 10° SSE 16:56:05 74° ENE 17:00:31 10° N
Cosmos 2218 Rocket 3.9 16:52:58 10° N 16:59:09 89° WSW 17:05:18 10° S
Meteor 1-26 Rocket 4.2 16:53:23 10° S 16:59:21 72° E 17:05:23 10° NNE
PSLV R/B 3.7 17:00:30 63° NNE 17:01:08 88° ESE 17:05:10 10° SSW
Okean O Rocket 4.4 17:04:45 10° SW 17:07:48 19° W 17:10:52 10° NW
Helios 1A Rocket 2.9 17:07:32 43° S 17:08:47 80° WSW 17:12:50 10° NNW
BREEZE-M DEB (TANK) 4.2 17:01:42 10° SW 17:09:30 37° SSE 17:09:34 37° SSE
Cosmos 1782 4.2 17:05:44 10° S 17:07:35 27° S 17:07:35 27° S
Cosmos 2366 rocket 4.0 17:04:01 10° N 17:10:14 77° W 17:16:22 10° S
DEBRIS 3.7 16:56:54 10° W 17:10:18 69° N 17:11:14 56° ENE
ISS -2.1 17:11:21 10° W 17:13:33 31° WNW 17:13:33 31° WNW
CZ-4B R/B 4.1 17:17:16 12° NNW 17:18:47 16° WNW 17:20:47 10° WSW
Cosmos 1151 Rocket 3.8 17:17:33 10° SSW 17:21:43 49° WNW 17:23:24 31° NNW
USA 267 3.3 17:21:44 36° SE 17:24:40 75° SW 17:31:14 10° NW
Cosmos 1328 Rocket 4.3 17:23:27 10° SSW 17:27:38 49° WNW 17:28:37 40° NW
Lacrosse 5 rocket 3.1 17:26:37 10° SW 17:28:08 23° SW 17:28:08 23° SW
Cosmos 489 Rocket 4.3 17:27:16 10° SSW 17:33:26 80° ESE 17:33:43 78° ENE
CSL-04 Debris 4.2 17:36:10 65° S 17:36:59 81° WSW 17:42:31 10° NNW
CZ-4 R/B 2.8 17:38:23 35° WNW 17:38:23 35° WNW 17:41:30 10° NNW
Cosmos 2237 Rocket 4.3 17:47:07 10° W 17:51:19 21° NW 17:54:26 14° N
H-2A R/B 2.7 17:52:26 51° SW 17:53:06 55° W 17:58:15 10° NNW
USA 281 4.4 17:54:35 10° S 18:00:36 38° WSW 18:06:39 10° NW
CSL-04 Rocket 4.4 18:01:44 49° WNW 18:01:44 49° WNW 18:06:07 10° NNW
Cosmos 2369 Rocket 3.2 17:58:40 10° NNW 18:02:10 39° NW 18:02:10 39° NW
Cosmos 1943 Rocket 3.9 18:27:42 10° NW 18:31:42 28° W 18:31:42 28° W
USA 215 4.3 18:35:12 39° NW 18:35:12 39° NW 18:40:17 10° W
SL-16 R/B 4.2 18:34:37 10° W 18:38:47 23° NW 18:38:47 23° NW
